Torna al catalogo

THOR ABLESTAR DEB

AttivoLEO
NORAD 404·DEBRIS·🇺🇸 United States

Lanciato Jun 29, 1961 da Cape Canaveral Space Force Station

Loading…

Prossimi Passaggi (prossime 24 ore)

TLE

AggiornatoSource: Space-Track

Epoca: Sep 9, 2026, 11:20 UTC

1 00404U 61015ED  26252.47223961  .00000021  00000-0  15178-3 0  9990
2 00404  66.4685 286.8852 0549723 127.0082 238.2565 12.92579274 54136

Traccia THOR ABLESTAR DEB in tempo reale con AllMySat

Download on the App Store